Pituffik, Greenland

3:56 AM AST on January 16, 2018 (GMT -0400)
Thule Air Base

Weather History for BGTL - December, 2012

Change the Weather History Date:

Saturday, December 29, 2012

  Actual Average Record
Temperature  
Mean Temperature -8 °F -  
Max Temperature -4 °F -2 °F 15 °F (2002)
Min Temperature -13 °F -17 °F -26 °F (2013)
Degree Days  
Heating Degree Days 74    
Moisture  
Dew Point -14 °F    
Average Humidity 76    
Maximum Humidity 84    
Minimum Humidity 68    
Precipitation  
Precipitation 0.00 in 0.01 in - ()
Sea Level Pressure  
Sea Level Pressure 29.91 in    
Wind  
Wind Speed 13 mph ()    
Max Wind Speed 18 mph    
Max Gust Speed -    
Visibility 5.9 miles    
Events      
Averages and records for this station are not official NWS values.
T = Trace of Precipitation, MM = Missing Value Source: Averaged Metar Reports

Daily Weather History Graph

Daily Weather History Graph

Search for Another Location

Airport or City:

Trip Planner

Search our weather history database for the weather conditions in past years. The results will help you decide how hot, cold, wet, or windy it might be!

Date:

Astronomy

Dec. 31, 1969 Rise Set
Actual Time Sun does not rise Sun does not rise
Civil Twilight Sun does not rise Sun does not rise
Nautical Twilight 10:16 AM AST 2:58 PM AST
Astronomical Twilight 7:57 AM AST 5:17 PM AST
Moon No Moon Rise No Moon Set
Length of Visible Light 0h 00m
Length of Day
0h 00m
Full, 99% of the Moon is Illuminated
Dec 29
Full
Jan 4
Last Quarter
Jan 11
New
Jan 18
First Quarter
Jan 27
Full

Hourly Weather History & Observations

Time (AST) Temp. Windchill Dew Point Humidity Pressure Visibility Wind Dir Wind Speed Gust Speed Precip Events Conditions
12:58 AM -7.6 °F -29.1 °F -15.7 °F 68% 29.85 in 6.2 mi East 15.0 mph - N/A   Clear
1:58 AM -9.4 °F -31.4 °F -17.0 °F 69% 29.85 in 6.2 mi East 15.0 mph - N/A   Clear
2:58 AM -10.5 °F -34.2 °F -17.7 °F 71% 29.86 in 6.2 mi East 17.3 mph - N/A   Clear
3:58 AM -9.4 °F -33.5 °F -17.5 °F 68% 29.87 in 6.2 mi East 18.4 mph - N/A   Partly Cloudy
4:58 AM -9.8 °F -31.9 °F -17.3 °F 69% 29.88 in 6.2 mi East 15.0 mph - N/A   Clear
5:58 AM -11.7 °F -35.1 °F -18.6 °F 72% 29.88 in 6.2 mi East 16.1 mph - N/A   Clear
6:58 AM -11.2 °F -34.4 °F -18.0 °F 72% 29.88 in 6.2 mi East 16.1 mph - N/A   Partly Cloudy
7:48 AM -11.2 °F -34.4 °F -18.4 °F 70% 29.90 in 6.2 mi East 16.1 mph - N/A   Mostly Cloudy
7:57 AM -11.2 °F -33.7 °F -16.6 °F 77% 29.91 in 6.2 mi East 15.0 mph - N/A   Mostly Cloudy
7:58 AM -11.2 °F -33.7 °F -16.6 °F 77% 29.89 in 6.2 mi East 15.0 mph - N/A   Mostly Cloudy
8:06 AM -11.2 °F -35.2 °F -16.6 °F 77% 29.91 in 6.2 mi East 17.3 mph - N/A   Mostly Cloudy
8:21 AM -11.2 °F -34.4 °F -16.6 °F 77% 29.91 in 6.2 mi East 16.1 mph - N/A   Overcast
8:34 AM -9.4 °F -28.9 °F -16.6 °F 71% 29.91 in - East 11.5 mph - N/A   Haze
8:58 AM -6.3 °F -28.2 °F -12.1 °F 76% 29.89 in 5.0 mi East 16.1 mph - N/A   Haze
9:29 AM -4.0 °F -24.5 °F -11.2 °F 71% 29.91 in 2.5 mi East 15.0 mph - N/A   Haze
9:39 AM -5.8 °F -26.0 °F -11.2 °F 77% 29.91 in - East 13.8 mph - N/A   Haze
9:48 AM -5.8 °F -26.8 °F -11.2 °F 77% 29.91 in 3.7 mi East 15.0 mph - N/A   Haze
9:58 AM -5.3 °F -26.1 °F -10.7 °F 77% 29.89 in - East 15.0 mph - N/A   Haze
10:10 AM -4.0 °F -23.0 °F -9.4 °F 78% 29.91 in 3.7 mi East 12.7 mph - N/A   Haze
10:40 AM -5.8 °F -25.2 °F -11.2 °F 77% 29.91 in 6.2 mi East 12.7 mph - N/A   Overcast
10:58 AM -5.8 °F -26.0 °F -11.0 °F 78% 29.89 in 6.2 mi East 13.8 mph - N/A   Overcast
11:02 AM -5.8 °F -25.2 °F -11.2 °F 77% 29.91 in 6.2 mi East 12.7 mph - N/A   Overcast
11:04 AM -5.8 °F -25.2 °F -11.2 °F 77% 29.91 in 6.2 mi East 12.7 mph - N/A   Overcast
11:09 AM -5.8 °F -25.2 °F -9.4 °F 84% 29.91 in 6.2 mi East 12.7 mph - N/A   Overcast
11:50 AM -5.8 °F -24.4 °F -11.2 °F 77% 29.91 in 6.2 mi East 11.5 mph - N/A   Overcast
11:58 AM -6.9 °F -24.8 °F -12.1 °F 78% 29.89 in 6.2 mi East 10.4 mph - N/A   Overcast
12:23 PM -7.6 °F -25.7 °F -13.0 °F 77% 29.92 in 6.2 mi ESE 10.4 mph - N/A   Overcast
12:46 PM -7.6 °F -25.7 °F -13.0 °F 77% 29.92 in 6.2 mi East 10.4 mph - N/A   Overcast
12:50 PM -7.6 °F -25.7 °F -13.0 °F 77% 29.92 in 6.2 mi East 10.4 mph - N/A   Overcast
12:58 PM -7.4 °F -25.4 °F -12.5 °F 79% 29.89 in 6.2 mi East 10.4 mph - N/A   Overcast
1:00 PM -7.6 °F -25.7 °F -11.2 °F 84% 29.91 in 5.0 mi East 10.4 mph - N/A   Haze
1:06 PM -7.6 °F -27.5 °F -13.0 °F 77% 29.91 in 3.7 mi East 12.7 mph - N/A   Haze
1:17 PM -7.6 °F -26.6 °F -13.0 °F 77% 29.91 in 6.2 mi East 11.5 mph - N/A   Mostly Cloudy
1:51 PM -4.0 °F -23.7 °F -9.4 °F 78% 29.91 in - East 13.8 mph - N/A   Haze
1:58 PM -4.5 °F -24.4 °F -9.6 °F 79% 29.90 in 3.7 mi East 13.8 mph - N/A   Haze
2:16 PM -5.8 °F -25.2 °F -11.2 °F 77% 29.92 in 6.2 mi East 12.7 mph - N/A   Overcast
2:50 PM -5.8 °F -26.0 °F -11.2 °F 77% 29.92 in 6.2 mi East 13.8 mph - N/A   Overcast
2:58 PM -5.8 °F -26.0 °F -11.0 °F 78% 29.90 in 5.6 mi East 13.8 mph - N/A   Haze
3:07 PM -5.8 °F -26.0 °F -11.2 °F 77% 29.92 in 6.2 mi East 13.8 mph - N/A   Overcast
3:09 PM -5.8 °F -26.0 °F -11.2 °F 77% 29.92 in 6.2 mi East 13.8 mph - N/A   Overcast
3:21 PM -5.8 °F -26.0 °F -11.2 °F 77% 29.92 in 6.2 mi East 13.8 mph - N/A   Scattered Clouds
3:39 PM -7.6 °F -29.1 °F -13.0 °F 77% 29.92 in 6.2 mi East 15.0 mph - N/A   Mostly Cloudy
3:46 PM -7.6 °F -29.1 °F -13.0 °F 77% 29.92 in 6.2 mi East 15.0 mph - N/A   Mostly Cloudy
3:58 PM -7.4 °F -28.9 °F -12.3 °F 79% 29.90 in 6.2 mi East 15.0 mph - N/A   Mostly Cloudy
4:04 PM -7.6 °F -28.3 °F -13.0 °F 77% 29.92 in 6.2 mi East 13.8 mph - N/A   Mostly Cloudy
4:07 PM -7.6 °F -28.3 °F -13.0 °F 77% 29.92 in 6.2 mi East 13.8 mph - N/A   Scattered Clouds
4:15 PM -7.6 °F -29.1 °F -13.0 °F 77% 29.92 in 6.2 mi East 15.0 mph - N/A   Mostly Cloudy
4:58 PM -7.4 °F -29.6 °F -12.8 °F 77% 29.91 in 5.6 mi East 16.1 mph - N/A   Haze
5:58 PM -10.1 °F -33.1 °F -15.7 °F 76% 29.91 in 6.2 mi East 16.1 mph - N/A   Overcast
6:58 PM -6.7 °F -27.2 °F -11.9 °F 78% 29.92 in 6.2 mi East 13.8 mph - N/A   Mostly Cloudy
6:59 PM -7.6 °F -27.5 °F -13.0 °F 77% 29.94 in 6.2 mi East 12.7 mph - N/A   Overcast
7:58 PM -13.0 °F -36.0 °F -18.4 °F 77% 29.92 in 6.2 mi East 15.0 mph - N/A   Overcast
8:04 PM -13.0 °F -36.0 °F -18.4 °F 77% 29.94 in 6.2 mi East 15.0 mph - N/A   Overcast
8:05 PM -13.0 °F -36.0 °F -18.4 °F 77% 29.94 in 6.2 mi East 15.0 mph - N/A   Overcast
8:18 PM -11.2 °F -33.7 °F -16.6 °F 77% 29.94 in 6.2 mi East 15.0 mph - N/A   Scattered Clouds
8:30 PM -11.2 °F -32.9 °F -16.6 °F 77% 29.94 in 6.2 mi East 13.8 mph - N/A   Partly Cloudy
8:58 PM -9.9 °F -31.3 °F -15.0 °F 78% 29.92 in 6.2 mi East 13.8 mph - N/A   Partly Cloudy
9:58 PM -9.8 °F -29.3 °F -15.2 °F 77% 29.92 in 6.2 mi East 11.5 mph - N/A   Clear
10:18 PM -11.2 °F -33.7 °F -16.6 °F 77% 29.95 in 6.2 mi East 15.0 mph - N/A   Partly Cloudy
10:32 PM -9.4 °F -30.6 °F -14.8 °F 77% 29.94 in 6.2 mi East 13.8 mph - N/A   Mostly Cloudy
10:58 PM -11.4 °F -33.9 °F -17.3 °F 75% 29.93 in 6.2 mi East 15.0 mph - N/A   Mostly Cloudy
11:06 PM -11.2 °F -34.4 °F -16.6 °F 77% 29.94 in 6.2 mi East 16.1 mph - N/A   Mostly Cloudy
11:08 PM -11.2 °F -33.7 °F -16.6 °F 77% 29.95 in 6.2 mi East 15.0 mph - N/A   Mostly Cloudy
11:13 PM -11.2 °F -33.7 °F -16.6 °F 77% 29.94 in 6.2 mi East 15.0 mph - N/A   Mostly Cloudy
11:15 PM -11.2 °F -32.9 °F -16.6 °F 77% 29.94 in 6.2 mi East 13.8 mph - N/A   Scattered Clouds
11:58 PM -12.5 °F -35.3 °F -18.2 °F 76% 29.92 in 6.2 mi East 15.0 mph - N/A   Clear